Lid_Strength_Index
9 8 7 5 4 4 3 2 2 2 2 2 2 1 1 1 1 1 -0 -0 -0 0 1 1 2 3 3 3 3 3 4 4 4 5 6 6 5 5 5 5 5 4 4
10 10 10 11 10 9 6 4 2 2 2 2 2 2 1 0 0 -0 -0 -0 0 0 0 1 2 3 3 4 4 4 4 4 4 4 5 6 4 5 4 4 3 4 4
10 10 10 10 11 12 11 9 3 2 2 2 1 1 1 1 1 1 1 0 1 0 0 0 0 1 2 4 4 3 4 4 4 4 4 6 7 5 3 3 4 4 3
10 10 9 8 8 9 9 10 10 2 2 2 1 2 2 2 1 1 0 0 0 0 0 0 1 1 2 2 3 3 3 3 4 4 4 4 4 6 6 5 4 4 5
10 9 8 8 8 6 6 10 11 8 2 2 1 1 2 1 1 1 1 1 3 3 2 2 1 2 2 2 2 2 2 2 2 3 4 5 5 5 7 8 7 5 6
10 9 8 7 7 7 7 9 7 5 2 2 3 1 2 2 3 2 2 3 6 6 5 5 5 5 3 4 4 4 4 4 3 3 3 4 5 6 6 8 7 8 7
10 9 9 8 8 7 7 6 6 5 5 4 5 3 3 3 3 3 4 6 6 7 7 7 7 7 7 7 6 7 7 7 7 7 7 6 7 6 6 7 8 9 8
10 9 9 9 9 8 7 7 7 7 8 8 8 7 6 7 6 6 7 8 9 9 9 9 9 9 9 9 8 9 9 10 10 10 10 9 9 8 8 8 9 11 12
10 9 9 9 9 9 9 9 9 9 10 10 10 10 9 10 9 10 9 10 10 10 10 10 10 10 10 10 10 11 12 12 12 12 12 11 10 10 10 9 9 10 13
10 10 10 10 10 10 10 10 10 10 11 10 10 11 11 10 10 10 11 11 11 11 11 11 11 12 12 11 11 12 12 13 13 12 12 12 12 11 11 11 11 10 11
10 10 11 10 11 11 11 11 11 11 11 10 11 11 11 11 11 11 12 12 12 12 12 12 13 13 13 12 13 13 14 14 14 13 13 13 13 13 12 12 12 12 11
10 11 11 11 11 11 11 11 11 11 11 11 11 12 12 12 12 13 13 13 13 14 14 14 13 13 13 13 14 14 14 14 14 14 14 14 13 14 13 12 12 12 11
11 11 11 11 11 12 12 12 12 12 12 12 12 12 12 13 13 14 14 14 14 14 14 14 14 14 14 14 15 14 14 14 15 14 15 15 14 13 12 12 12 12 12
10 10 11 11 11 11 12 12 12 12 12 12 13 13 14 14 14 14 15 15 15 15 14 14 15 15 16 15 15 14 15 15 15 14 14 14 13 13 13 13 13 12 13
10 10 10 11 11 11 11 11 12 12 13 13 13 14 15 15 15 16 16 15 15 15 15 15 16 16 16 15 14 14 14 14 14 15 14 13 13 12 12 13 13 12 13
9 9 9 10 11 11 12 12 12 13 13 14 15 15 16 16 16 16 15 15 15 15 15 16 16 17 16 13 13 13 14 14 14 15 14 13 13 12 12 11 11 10 11
8 9 9 9 10 11 11 12 13 14 15 16 16 16 16 16 16 16 15 15 16 16 16 16 17 17 16 13 13 13 14 14 14 14 14 14 13 13 12 11 10 10 9
8 8 8 9 10 11 12 13 14 15 15 16 16 16 16 16 16 16 16 16 16 17 17 17 17 17 16 13 12 12 14 14 13 13 13 13 13 12 12 12 11 10 10
8 8 8 9 10 12 12 13 14 15 15 16 16 16 16 16 17 17 18 17 18 19 19 18 19 19 17 14 12 13 14 14 14 14 13 13 13 11 10 11 10 10 10
8 8 8 10 11 13 13 14 15 16 15 15 15 16 16 17 18 18 18 18 19 18 18 18 19 19 20 15 13 12 15 16 15 14 13 12 11 10 9 10 10 11 11
10 10 10 12 12 14 14 14 15 15 15 16 16 17 17 18 18 18 19 20 20 20 23 21 21 22 20 19 13 12 15 15 14 13 12 11 10 9 8 8 10 10 9
11 11 12 12 13 13 13 15 15 15 16 17 17 18 19 18 19 20 21 21 22 24 24 25 24 22 20 16 14 13 12 12 13 13 12 11 9 8 8 8 8 9 9
13 12 12 14 14 14 13 15 15 16 17 18 19 20 20 19 20 21 21 22 24 24 24 24 25 24 20 20 14 13 12 12 12 11 10 8 8 8 9 9 9 11 13
14 14 14 14 15 14 14 14 16 17 17 19 19 20 20 21 20 20 20 23 24 26 26 26 26 25 21 20 18 16 12 11 10 10 10 10 8 8 9 12 12 13 15
16 14 14 14 15 15 16 16 17 18 18 19 20 20 20 21 22 22 22 22 24 24 27 27 26 25 23 17 13 12 12 11 10 9 14 18 16 15 14 15 16 17 15
17 16 16 15 17 17 19 19 18 17 19 20 20 20 21 22 22 23 23 20 18 17 17 16 18 22 15 13 12 11 10 10 9 11 13 13 16 13 14 15 16 15 14